Weather History for Nebraska City, NE

Change the Weather History Date:

Saturday, June 15, 2013

  Actual Average (KSDA) Record (KSDA)
Temperature  
Mean Temperature 75 °F -  
Max Temperature 84 °F 84 °F 101 °F (1952)
Min Temperature 67 °F 59 °F 46 °F (1969)
Cooling Degree Days 10    
Growing Degree Days 25 (Base 50)    
Moisture  
Dew Point 65 °F    
Average Humidity 77    
Maximum Humidity 100    
Minimum Humidity 46    
Precipitation  
Precipitation 0.14 in - - ()
Sea Level Pressure  
Sea Level Pressure 29.91 in    
Wind  
Wind Speed 9 mph (South)    
Max Wind Speed 20 mph    
Max Gust Speed 26 mph    
Visibility 10 miles    
Events Rain    
Averages and records for this station are not official NWS values.
T = Trace of Precipitation, MM = Missing Value Source: NWS Daily Summary

Daily Weather History Graph

Daily Weather History Graph

Search for Another Location

Airport:

Trip Planner

Search our weather history database for the weather conditions in past years. The results will help you decide how hot, cold, wet, or windy it might be!

Date:

Astronomy

Jun. 15, 2013 Rise Set
Actual Time 5:52 AM CDT 8:56 PM CDT
Civil Twilight 5:18 AM CDT 9:29 PM CDT
Nautical Twilight 4:36 AM CDT 10:11 PM CDT
Astronomical Twilight 3:46 AM CDT 11:01 PM CDT
Moon 12:29 PM CDT (6/15) 12:30 AM CDT (6/15)
Length of Visible Light 16h 10m
Length of Day
15h 04m
Waxing Crescent, 40% of the Moon is Illuminated
Jun 15
Waxing Crescent
Jun 16
First Quarter
Jun 23
Full
Jun 29
Last Quarter
Jul 8
New

Hourly Weather History & Observations

Time (CDT) Temp. Heat Index Dew Point Humidity Pressure Visibility Wind Dir Wind Speed Gust Speed Precip Events Conditions
12:15 AM 72.3 °F - 64.9 °F 78% 29.91 in 10.0 mi ESE 4.6 mph - N/A   Scattered Clouds
12:35 AM 72.1 °F - 65.3 °F 79% 29.90 in 10.0 mi SE 6.9 mph - N/A   Clear
12:55 AM 72.7 °F - 65.3 °F 78% 29.90 in 10.0 mi SE 9.2 mph - N/A   Clear
1:15 AM 72.1 °F - 64.6 °F 77% 29.90 in 10.0 mi SSE 12.7 mph - N/A   Clear
1:35 AM 72.0 °F - 64.4 °F 77% 29.89 in 10.0 mi SSE 12.7 mph - N/A   Clear
1:55 AM 71.8 °F - 64.4 °F 77% 29.87 in 10.0 mi SSE 13.8 mph 20.7 mph N/A   Clear
2:15 AM 72.7 °F - 64.9 °F 77% 29.88 in 10.0 mi SE 13.8 mph 20.7 mph N/A   Clear
2:35 AM 73.0 °F - 65.7 °F 78% 29.88 in 10.0 mi SSE 12.7 mph - N/A   Clear
2:55 AM 73.0 °F - 66.2 °F 79% 29.88 in 10.0 mi SSE 12.7 mph 18.4 mph N/A   Clear
3:15 AM 73.0 °F - 66.2 °F 79% 29.88 in 10.0 mi SSE 15.0 mph 21.9 mph N/A   Clear
3:35 AM 72.5 °F - 66.4 °F 81% 29.87 in 10.0 mi SSE 12.7 mph 20.7 mph N/A   Clear
3:55 AM 71.6 °F - 66.2 °F 83% 29.87 in 10.0 mi SSE 10.4 mph - N/A   Clear
4:15 AM 70.7 °F - 66.2 °F 86% 29.86 in 10.0 mi South 10.4 mph - N/A   Clear
4:35 AM 70.2 °F - 65.8 °F 86% 29.86 in 10.0 mi SSE 9.2 mph - N/A   Clear
4:55 AM 70.0 °F - 66.2 °F 88% 29.87 in 10.0 mi ESE 6.9 mph - N/A   Clear
5:15 AM 70.0 °F - 66.2 °F 88% 29.87 in 10.0 mi SE 9.2 mph - N/A   Clear
5:35 AM 69.8 °F - 66.2 °F 88% 29.86 in 10.0 mi SSE 8.1 mph - N/A   Clear
5:55 AM 69.8 °F - 67.5 °F 92% 29.86 in 10.0 mi SSE 9.2 mph - N/A   Clear
6:15 AM 70.2 °F - 68.0 °F 93% 29.87 in 10.0 mi South 8.1 mph - N/A   Clear
6:35 AM 70.9 °F - 68.9 °F 93% 29.87 in 10.0 mi South 10.4 mph - N/A   Clear
6:55 AM 72.0 °F - 69.8 °F 93% 29.87 in 10.0 mi South 6.9 mph - N/A   Clear
7:15 AM 75.0 °F - 70.7 °F 86% 29.89 in 10.0 mi SSW 6.9 mph - N/A   Clear
7:35 AM 75.7 °F - 64.9 °F 69% 29.87 in 10.0 mi WSW 15.0 mph 24.2 mph N/A Rain Rain
7:55 AM 75.7 °F - 63.5 °F 66% 29.87 in 10.0 mi SW 16.1 mph 21.9 mph N/A   Scattered Clouds
8:15 AM 79.2 °F - 58.1 °F 48% 29.87 in 10.0 mi WSW 19.6 mph - N/A   Clear
8:35 AM 80.2 °F 80.8 °F 59.2 °F 48% 29.87 in 10.0 mi WSW 16.1 mph 19.6 mph N/A   Clear
8:55 AM 80.6 °F 80.9 °F 58.3 °F 46% 29.87 in 10.0 mi SW 17.3 mph 23.0 mph N/A   Clear
9:15 AM 80.8 °F 81.1 °F 58.3 °F 46% 29.88 in 10.0 mi West 15.0 mph 20.7 mph N/A   Clear
9:35 AM 81.0 °F 81.2 °F 58.6 °F 46% 29.89 in 10.0 mi WSW 18.4 mph 23.0 mph N/A   Clear
9:55 AM 80.8 °F 81.4 °F 60.1 °F 49% 29.89 in 10.0 mi WSW 15.0 mph 20.7 mph N/A   Clear
10:15 AM 81.7 °F 82.3 °F 61.0 °F 49% 29.90 in 10.0 mi WSW 16.1 mph - N/A   Clear
10:35 AM 82.9 °F 84.2 °F 63.5 °F 52% 29.90 in 10.0 mi WSW 17.3 mph - N/A   Clear
10:55 AM 82.6 °F 83.8 °F 63.1 °F 52% 29.92 in 10.0 mi West 17.3 mph - N/A   Clear
11:15 AM 81.9 °F 83.2 °F 63.9 °F 54% 29.94 in 10.0 mi West 12.7 mph 17.3 mph N/A   Clear
11:35 AM 82.6 °F 83.9 °F 63.7 °F 53% 29.94 in 10.0 mi West 15.0 mph 19.6 mph N/A   Clear
11:55 AM 83.8 °F 84.9 °F 63.1 °F 50% 29.94 in 10.0 mi West 12.7 mph 20.7 mph N/A   Clear
12:15 PM 82.9 °F 84.0 °F 63.0 °F 51% 29.94 in 10.0 mi North 9.2 mph 20.7 mph N/A   Clear
12:35 PM 80.6 °F 82.3 °F 64.8 °F 58% 29.95 in 10.0 mi NNW 8.1 mph - N/A   Clear
12:55 PM 80.4 °F 82.4 °F 65.8 °F 61% 29.95 in 10.0 mi North 4.6 mph - N/A   Clear
1:15 PM 79.2 °F - 65.8 °F 64% 29.95 in 10.0 mi NNW 5.8 mph - N/A   Clear
1:35 PM 79.0 °F - 65.5 °F 63% 29.97 in 10.0 mi WNW 6.9 mph - N/A   Clear
1:55 PM 78.3 °F - 64.4 °F 62% 29.98 in 10.0 mi West 19.6 mph 26.5 mph N/A Rain Rain
2:15 PM 72.7 °F - 66.6 °F 81% 30.01 in 7.0 mi West 18.4 mph 24.2 mph 0.03 in Rain Rain
2:35 PM 69.6 °F - 64.2 °F 83% 29.98 in 7.0 mi NW 11.5 mph 18.4 mph 0.06 in Rain Rain
2:55 PM 69.8 °F - 65.1 °F 85% 29.96 in 10.0 mi North 5.8 mph - 0.07 in Rain Light Rain
3:15 PM 70.7 °F - 65.8 °F 85% 29.94 in 10.0 mi NNW 3.5 mph - 0.01 in Rain Light Rain
3:35 PM 72.7 °F - 66.2 °F 80% 29.92 in 10.0 mi Calm Calm - 0.01 in Rain Light Rain
3:55 PM 72.3 °F - 67.3 °F 84% 29.89 in 10.0 mi NNE 4.6 mph - 0.01 in Rain Light Rain
4:15 PM 73.0 °F - 65.7 °F 78% 29.89 in 10.0 mi NE 3.5 mph - N/A   Mostly Cloudy
4:35 PM 72.5 °F - 65.7 °F 79% 29.90 in 10.0 mi Calm Calm - 0.01 in Rain Light Rain
4:55 PM 72.3 °F - 66.2 °F 81% 29.92 in 10.0 mi Calm Calm - 0.01 in Rain Light Rain
5:15 PM 71.8 °F - 66.6 °F 84% 29.90 in 10.0 mi ESE 3.5 mph - 0.05 in Rain Light Rain
5:35 PM 73.4 °F - 68.5 °F 85% 29.90 in 10.0 mi SSE 5.8 mph - 0.05 in   Scattered Clouds
5:55 PM 73.6 °F - 67.6 °F 82% 29.91 in 10.0 mi SSE 9.2 mph - 0.05 in   Clear
6:15 PM 72.9 °F - 65.7 °F 78% 29.91 in 10.0 mi SSE 4.6 mph - N/A   Mostly Cloudy
6:35 PM 72.5 °F - 65.3 °F 78% 29.91 in 10.0 mi SE 4.6 mph - N/A   Overcast
6:55 PM 72.1 °F - 65.7 °F 80% 29.91 in 10.0 mi SSE 6.9 mph - N/A   Overcast
7:15 PM 72.5 °F - 66.0 °F 80% 29.92 in 10.0 mi South 5.8 mph - N/A   Overcast
7:35 PM 72.3 °F - 66.0 °F 80% 29.92 in 10.0 mi South 9.2 mph - N/A   Overcast
7:55 PM 70.7 °F - 66.2 °F 86% 29.93 in 10.0 mi South 5.8 mph - N/A   Overcast
8:15 PM 70.7 °F - 66.4 °F 86% 29.94 in 10.0 mi SSE 8.1 mph - N/A   Overcast
8:35 PM 69.8 °F - 66.4 °F 89% 29.94 in 10.0 mi SSE 6.9 mph - N/A   Mostly Cloudy
8:55 PM 69.3 °F - 67.5 °F 94% 29.93 in 10.0 mi SE 5.8 mph - N/A   Mostly Cloudy
9:15 PM 68.9 °F - 67.3 °F 95% 29.93 in 10.0 mi Calm Calm - N/A   Mostly Cloudy
9:35 PM 68.5 °F - 67.1 °F 95% 29.93 in 10.0 mi SE 4.6 mph - N/A   Mostly Cloudy
9:55 PM 68.0 °F - 66.7 °F 96% 29.93 in 10.0 mi East 3.5 mph - N/A   Scattered Clouds
10:15 PM 67.3 °F - 66.6 °F 98% 29.94 in 10.0 mi Calm Calm - N/A   Scattered Clouds
10:35 PM 67.3 °F - 66.9 °F 99% 29.95 in 10.0 mi Calm Calm - N/A   Clear
10:55 PM 67.1 °F - 66.7 °F 99% 29.96 in 10.0 mi Calm Calm - N/A   Scattered Clouds
11:15 PM 67.3 °F - 67.3 °F 100% 29.96 in 10.0 mi Calm Calm - N/A   Mostly Cloudy
11:35 PM 68.5 °F - 68.5 °F 100% 29.96 in 10.0 mi SE 5.8 mph - N/A   Overcast
11:55 PM 68.9 °F - 68.9 °F 100% 29.97 in 10.0 mi South 5.8 mph - N/A   Overcast